GW1112 Weather Reports


Display with metric or nautical units.
time (UTC)temp
F
wind
direction
speed
MPH
gust
MPH
rain 1hr
in
rain 24hr
in
rain mn
in
humidity
%
barometer
mb
20260509080023 47 242 0.0 0.0 0.00 0.01 0.01 99 1010.4
20260509075520 47 242 0.0 0.0 0.00 0.01 0.01 99 1010.3
20260509075018 47 242 0.0 0.0 0.00 0.01 0.01 99 1010.4
20260509074515 47 242 0.0 0.0 0.00 0.01 0.01 99 1010.7
20260509074011 47 242 0.0 0.0 0.00 0.01 0.01 99 1010.4
20260509073508 47 242 0.0 0.0 0.00 0.01 0.01 99 1010.6
20260509073004 47 242 0.0 0.0 0.00 0.01 0.01 99 1010.6
20260509072501 47 242 0.0 0.0 0.00 0.01 0.01 99 1010.6
20260509071957 47 242 0.0 0.0 0.00 0.01 0.01 99 1010.4
20260509071454 47 242 0.0 0.0 0.00 0.01 0.01 99 1010.4
20260509070952 47 242 0.0 0.0 0.00 0.01 0.01 99 1010.8
20260509070449 47 242 0.0 0.0 0.00 0.01 0.01 99 1010.8
20260509065944 47 242 0.0 0.0 0.00 0.01 0.01 99 1011.1
20260509065440 47 242 0.0 0.0 0.00 0.01 0.01 99 1011.2
20260509064936 47 242 0.0 0.0 0.05 0.01 0.01 99 1011.3
20260509064434 47 242 0.0 0.0 0.05 0.01 0.01 99 1011.2
20260509063932 47 242 0.0 0.0 0.00 0.00 0.00 99 1011.1
20260509063427 47 242 0.0 0.0 0.00 0.00 0.00 99 1011.4
20260509062924 48 242 0.0 0.0 0.00 0.00 0.00 99 1011.6
20260509062421 47 242 0.0 0.0 0.00 0.00 0.00 99 1011.6
20260509061919 48 242 0.0 0.0 0.00 0.00 0.00 99 1011.6
20260509061417 48 242 0.0 0.0 0.00 0.00 0.00 99 1011.6
20260509060913 48 242 0.0 0.0 0.00 0.00 0.00 99 1011.8
20260509060411 48 240 0.0 0.0 0.00 0.00 0.00 99 1011.6
20260509055905 48 242 0.0 0.0 0.00 0.00 0.00 99 1011.9
20260509055401 48 242 0.0 0.0 0.00 0.00 0.00 99 1011.5
20260509054858 48 242 0.0 0.0 0.00 0.00 0.00 99 1011.8
20260509054355 48 243 0.0 0.0 0.00 0.00 0.00 99 1011.9
20260509053853 48 242 0.0 0.0 0.00 0.00 0.00 99 1011.9
20260509053350 48 243 0.0 0.0 0.00 0.00 0.00 99 1012.1
20260509052849 48 242 0.0 0.0 0.00 0.00 0.00 99 1012.2
20260509052346 48 241 0.0 0.0 0.00 0.00 0.00 99 1012.3
20260509051843 48 241 0.0 0.0 0.00 0.00 0.00 99 1012.4
20260509051341 48 241 0.0 0.0 0.00 0.00 0.00 99 1012.4
20260509050837 48 242 0.0 0.0 0.00 0.00 0.00 98 1012.3
20260509050335 48 229 0.0 0.0 0.00 0.00 0.00 98 1012.4
20260509045831 48 237 0.0 0.0 0.00 0.00 0.00 98 1012.4
20260509045328 48 248 0.0 0.0 0.00 0.00 0.00 98 1012.6
20260509044826 48 249 0.0 0.0 0.00 0.00 0.00 98 1012.6
20260509044323 48 248 0.0 0.0 0.00 0.00 0.00 98 1012.6
20260509043819 48 237 0.0 0.0 0.00 0.00 0.00 97 1012.6
20260509043315 48 237 0.0 0.0 0.00 0.00 0.00 97 1012.7
20260509042811 49 236 0.0 0.0 0.00 0.00 0.00 97 1012.5
20260509042308 49 248 0.0 0.0 0.00 0.00 0.00 96 1012.3
20260509041804 49 229 0.0 0.0 0.00 0.00 0.00 97 1012.3
20260509041301 49 237 0.0 0.0 0.00 0.00 0.00 96 1012.3
20260509040800 49 237 0.0 0.0 0.00 0.00 0.00 95 1012.2
20260509040257 49 237 0.0 0.0 0.00 0.00 0.00 95 1012.4
20260509035754 49 237 0.0 0.0 0.00 0.01 0.01 95 1012.4
20260509035251 49 237 0.0 0.0 0.00 0.01 0.01 95 1012.3
20260509034747 49 237 0.0 0.0 0.00 0.01 0.01 95 1012.2
20260509034245 49 237 0.0 0.0 0.00 0.01 0.01 95 1012.0
20260509033742 49 235 0.0 0.0 0.00 0.01 0.01 94 1012.0
20260509033239 49 235 0.0 0.0 0.00 0.01 0.01 94 1011.9
20260509032736 49 235 0.0 0.0 0.00 0.01 0.01 94 1011.9
20260509032233 49 234 0.0 0.0 0.00 0.01 0.01 93 1012.1
20260509031731 49 234 0.0 0.0 0.00 0.01 0.01 93 1012.1
20260509031228 49 235 0.0 0.0 0.00 0.01 0.01 93 1012.2
20260509030726 49 235 0.0 0.0 0.00 0.01 0.01 93 1012.5
20260509030223 49 235 0.0 0.0 0.00 0.01 0.01 92 1012.4
20260509025720 50 234 0.0 0.0 0.00 0.01 0.01 91 1012.4
20260509025215 50 235 0.0 0.0 0.00 0.01 0.01 91 1012.6
20260509024711 51 234 0.0 0.0 0.00 0.01 0.01 90 1012.6
20260509024207 51 233 0.0 0.0 0.00 0.01 0.01 89 1012.6
20260509023705 51 249 0.0 0.0 0.00 0.01 0.01 86 1012.5
20260509023201 51 250 1.0 1.0 0.00 0.01 0.01 86 1012.5
20260509022657 52 250 1.0 1.0 0.00 0.01 0.01 87 1012.5
20260509022155 52 250 0.0 0.0 0.00 0.01 0.01 86 1012.5
20260509021652 51 248 1.0 2.0 0.00 0.01 0.01 86 1012.2
20260509021149 52 247 0.0 0.0 0.00 0.01 0.01 87 1012.0
20260509020648 52 232 0.0 0.0 0.00 0.01 0.01 87 1012.0
20260509020144 53 233 0.0 0.0 0.00 0.01 0.01 86 1012.5
20260509015643 53 232 0.0 0.0 0.00 0.01 0.01 84 1012.4
20260509015140 52 261 3.0 3.0 0.00 0.01 0.01 81 1012.3
20260509014636 52 247 0.0 1.0 0.00 0.01 0.01 87 1012.5
20260509014133 53 241 0.0 0.0 0.00 0.01 0.01 86 1012.5
20260509013630 53 241 0.0 0.0 0.00 0.01 0.01 84 1012.3
20260509013125 53 247 0.0 0.0 0.00 0.01 0.01 81 1012.1
20260509012622 53 258 1.0 2.0 0.00 0.01 0.01 81 1012.1
20260509012119 53 229 0.0 0.0 0.00 0.01 0.01 84 1012.0
20260509011617 52 222 1.0 1.0 0.00 0.01 0.01 83 1011.9
20260509011114 52 230 0.0 0.0 0.00 0.01 0.01 84 1011.8
20260509010612 52 230 0.0 0.0 0.00 0.01 0.01 84 1011.8
20260509010108 52 227 0.0 0.0 0.00 0.01 0.01 84 1011.8
20260509005606 52 233 0.0 0.0 0.00 0.01 0.01 84 1011.7
20260509005101 52 234 0.0 0.0 0.00 0.01 0.01 84 1011.6
20260509004558 53 234 0.0 0.0 0.00 0.01 0.01 84 1011.7
20260509004055 53 234 0.0 0.0 0.00 0.01 0.01 83 1011.6
20260509003554 53 233 0.0 0.0 0.00 0.01 0.01 83 1011.8
20260509003050 53 238 0.0 0.0 0.00 0.01 0.01 83 1011.8
20260509002548 53 238 0.0 0.0 0.00 0.01 0.01 83 1011.7
20260509002045 53 226 0.0 0.0 0.00 0.01 0.01 82 1011.6
20260509001542 54 236 0.0 0.0 0.00 0.01 0.01 81 1011.7
20260509001038 54 251 0.0 1.0 0.00 0.01 0.01 82 1011.6
20260509000537 54 235 0.0 0.0 0.00 0.01 0.01 82 1011.5
20260509000032 54 249 1.0 1.0 0.00 0.01 0.01 82 1011.6
20260508235530 54 238 0.0 0.0 0.00 0.01 0.01 82 1011.5
20260508235026 54 241 0.0 0.0 0.00 0.01 0.01 82 1011.5
20260508234524 54 237 0.0 0.0 0.00 0.01 0.01 83 1011.5
20260508234021 54 238 0.0 0.0 0.00 0.01 0.01 83 1011.4
20260508233520 54 252 0.0 1.0 0.00 0.01 0.01 83 1011.4
20260508233017 54 238 0.0 0.0 0.00 0.01 0.01 85 1011.2
20260508232514 55 238 0.0 0.0 0.00 0.01 0.01 85 1011.3
20260508232011 55 244 0.0 0.0 0.00 0.01 0.01 86 1011.2
20260508231508 55 244 0.0 0.0 0.00 0.01 0.01 85 1011.0
20260508231005 55 246 0.0 0.0 0.00 0.01 0.01 84 1011.2
20260508230502 55 238 0.0 0.0 0.00 0.01 0.01 83 1010.9
20260508225958 56 233 0.0 0.0 0.00 0.01 0.01 83 1011.0
20260508225456 57 243 0.0 1.0 0.00 0.01 0.01 82 1010.9
20260508224953 56 239 0.0 0.0 0.00 0.01 0.01 84 1010.9
20260508224450 55 233 2.0 2.0 0.00 0.01 0.01 84 1011.0
20260508223947 55 266 2.0 3.0 0.00 0.01 0.01 84 1011.1
20260508223445 56 251 3.0 4.0 0.00 0.01 0.01 82 1010.8
20260508222942 56 256 1.0 2.0 0.00 0.01 0.01 82 1011.0
20260508222440 55 254 1.0 2.0 0.00 0.01 0.01 83 1011.2
20260508221936 54 241 1.0 2.0 0.00 0.01 0.01 89 1011.5
20260508221432 53 244 0.0 0.0 0.00 0.01 0.01 91 1011.4
20260508220928 53 240 0.0 0.0 0.00 0.01 0.01 95 1011.5
20260508220425 52 237 0.0 0.0 0.00 0.01 0.01 95 1011.5
20260508215921 52 237 0.0 0.0 0.00 0.01 0.01 96 1011.5
20260508215419 53 237 0.0 0.0 0.00 0.01 0.01 96 1011.4
20260508214915 53 236 0.0 0.0 0.00 0.01 0.01 96 1011.5
20260508214413 53 236 0.0 0.0 0.00 0.01 0.01 96 1011.1
20260508213908 52 241 0.0 0.0 0.00 0.01 0.01 96 1011.3
20260508213406 51 241 1.0 2.0 0.00 0.01 0.01 95 1011.3
20260508212901 51 244 0.0 0.0 0.00 0.01 0.01 95 1011.3
20260508212358 52 240 0.0 0.0 0.07 0.01 0.01 95 1011.3
20260508211854 52 240 0.0 0.0 0.07 0.01 0.01 94 1011.2
20260508211350 52 233 0.0 0.0 0.00 0.00 0.00 93 1011.3
20260508210848 52 240 0.0 0.0 0.00 0.00 0.00 91 1011.4
20260508210344 53 253 0.0 1.0 0.00 0.00 0.00 87 1011.6
20260508205840 55 251 5.0 9.0 0.00 0.00 0.00 82 1011.6
20260508205337 58 274 4.0 4.0 0.00 0.00 0.00 71 1011.3
20260508204833 60 253 2.0 2.0 0.00 0.00 0.00 67 1010.9
20260508204331 60 228 0.0 0.0 0.00 0.00 0.00 66 1010.9
20260508203826 60 234 0.0 1.0 0.00 0.00 0.00 66 1010.7
20260508203323 60 240 1.0 1.0 0.00 0.00 0.00 65 1010.7
20260508202818 61 252 1.0 2.0 0.00 0.00 0.00 65 1010.8
20260508202316 61 226 1.0 1.0 0.00 0.00 0.00 66 1010.7
20260508201813 61 232 0.0 0.0 0.00 0.00 0.00 65 1010.9
20260508201310 61 229 0.0 0.0 0.00 0.00 0.00 64 1010.8
20260508200806 61 246 0.0 0.0 0.00 0.00 0.00 65 1010.9
20260508200303 62 259 3.0 3.0 0.00 0.00 0.00 60 1011.0
20260508195759 62 230 0.0 1.0 0.00 0.00 0.00 64 1011.0
20260508195256 61 231 0.0 0.0 0.00 0.00 0.00 64 1011.2
20260508194752 61 250 2.0 3.0 0.00 0.00 0.00 64 1011.2
20260508194249 60 236 1.0 2.0 0.00 0.00 0.00 63 1011.2
20260508193746 60 257 2.0 2.0 0.00 0.00 0.00 61 1011.3
20260508193243 62 268 2.0 3.0 0.00 0.00 0.00 61 1011.1
20260508192739 63 246 0.0 0.0 0.00 0.00 0.00 59 1011.1
20260508192237 62 244 0.0 1.0 0.00 0.00 0.00 59 1011.0
20260508191734 63 257 1.0 1.0 0.00 0.00 0.00 60 1011.2
20260508191231 62 327 1.0 1.0 0.00 0.00 0.00 59 1011.2
20260508190728 62 331 4.0 6.0 0.00 0.00 0.00 61 1011.1
20260508190224 61 263 1.0 2.0 0.00 0.00 0.00 63 1011.2
20260508185721 59 212 0.0 1.0 0.00 0.00 0.00 65 1011.6
20260508185218 58 236 1.0 1.0 0.00 0.00 0.00 65 1011.6
20260508184715 59 236 1.0 1.0 0.00 0.00 0.00 69 1011.8
20260508184212 58 208 2.0 3.0 0.00 0.00 0.00 68 1011.7
20260508183709 57 197 1.0 2.0 0.00 0.00 0.00 64 1012.1
20260508183205 58 231 0.0 0.0 0.00 0.00 0.00 65 1011.8
20260508182701 58 281 4.0 7.0 0.00 0.00 0.00 62 1011.7
20260508182158 60 283 4.0 6.0 0.00 0.00 0.00 60 1011.6
20260508181654 62 282 5.0 8.0 0.00 0.00 0.00 58 1011.7
20260508181151 62 237 1.0 2.0 0.00 0.00 0.00 59 1011.7
20260508180647 61 237 3.0 4.0 0.00 0.00 0.00 58 1011.8
20260508180144 61 242 3.0 4.0 0.00 0.00 0.00 58 1011.6
20260508175641 62 244 4.0 4.0 0.00 0.00 0.00 55 1011.8
20260508175138 63 254 5.0 8.0 0.00 0.00 0.00 56 1011.7
20260508174635 61 243 4.0 7.0 0.00 0.00 0.00 58 1011.9
20260508174132 59 232 0.0 0.0 0.00 0.00 0.00 65 1012.0
20260508173629 58 319 5.0 8.0 0.00 0.00 0.00 59 1012.1
20260508173125 58 273 3.0 4.0 0.00 0.00 0.00 58 1012.0
20260508172623 58 272 6.0 8.0 0.00 0.00 0.00 57 1011.9
20260508172119 58 260 9.0 14.0 0.00 0.00 0.00 57 1011.9
20260508171615 58 262 6.0 7.0 0.00 0.00 0.00 58 1012.1
20260508171112 58 232 4.0 6.0 0.00 0.00 0.00 60 1012.0
20260508170609 58 249 2.0 2.0 0.00 0.00 0.00 60 1011.9
20260508170107 59 237 2.0 3.0 0.00 0.00 0.00 59 1012.0
20260508165603 59 267 5.0 7.0 0.00 0.00 0.00 58 1012.2
20260508165100 59 282 4.0 6.0 0.00 0.00 0.00 58 1011.8
20260508164556 59 238 1.0 2.0 0.00 0.00 0.00 59 1012.0
20260508164053 58 233 2.0 2.0 0.00 0.00 0.00 60 1012.0
20260508163551 58 270 5.0 8.0 0.00 0.00 0.00 58 1012.0
20260508163048 58 213 2.0 3.0 0.00 0.00 0.00 58 1012.1
20260508162545 58 240 0.0 1.0 0.00 0.00 0.00 59 1012.1
20260508162042 59 259 2.0 3.0 0.00 0.00 0.00 58 1012.1
20260508161538 59 271 2.0 2.0 0.00 0.00 0.00 56 1012.1
20260508161036 60 270 2.0 2.0 0.00 0.00 0.00 57 1012.4
20260508160534 60 262 4.0 4.0 0.00 0.00 0.00 57 1012.2
20260508160031 59 278 6.0 8.0 0.00 0.00 0.00 55 1012.2
20260508155528 58 236 2.0 3.0 0.00 0.00 0.00 58 1012.1
20260508155025 57 252 3.0 3.0 0.00 0.00 0.00 60 1012.3
20260508154522 57 257 4.0 6.0 0.00 0.00 0.00 59 1012.3
20260508154019 59 266 6.0 9.0 0.00 0.00 0.00 57 1012.1
20260508153515 60 301 4.0 4.0 0.00 0.00 0.00 57 1012.2
20260508153012 59 248 4.0 4.0 0.00 0.00 0.00 60 1012.2
20260508152509 59 242 1.0 2.0 0.00 0.00 0.00 60 1012.1
20260508152005 60 270 4.0 6.0 0.00 0.00 0.00 59 1012.2
20260508151501 58 230 1.0 1.0 0.00 0.00 0.00 64 1012.1
20260508150958 58 280 2.0 4.0 0.00 0.00 0.00 62 1012.0
20260508150455 59 159 3.0 3.0 0.00 0.00 0.00 60 1012.2
20260508145950 59 253 3.0 3.0 0.00 0.00 0.00 59 1012.2
20260508145448 60 263 4.0 6.0 0.00 0.00 0.00 56 1012.2
20260508144944 61 288 6.0 8.0 0.00 0.00 0.00 56 1012.3
20260508144442 62 245 1.0 2.0 0.00 0.00 0.00 58 1012.1
20260508143939 62 245 1.0 2.0 0.00 0.00 0.00 59 1012.3
20260508143437 60 253 0.0 0.0 0.00 0.00 0.00 63 1012.4
20260508142933 60 219 1.0 1.0 0.00 0.00 0.00 63 1012.2
20260508142430 60 243 1.0 1.0 0.00 0.00 0.00 62 1012.4
20260508141926 60 242 2.0 2.0 0.00 0.00 0.00 61 1012.3
20260508141423 58 228 0.0 1.0 0.00 0.00 0.00 66 1012.3
20260508140921 57 224 2.0 4.0 0.00 0.00 0.00 64 1012.7
20260508140418 58 235 1.0 2.0 0.00 0.00 0.00 66 1012.4
20260508135913 59 232 1.0 1.0 0.00 0.00 0.00 63 1012.7
20260508135410 58 241 0.0 1.0 0.00 0.00 0.00 61 1012.6
20260508134907 58 236 1.0 1.0 0.00 0.00 0.00 69 1012.6
20260508134403 58 240 0.0 1.0 0.00 0.00 0.00 67 1012.7
20260508133900 57 222 1.0 1.0 0.00 0.00 0.00 68 1012.8
20260508133358 55 254 2.0 2.0 0.00 0.00 0.00 68 1012.9
20260508132854 53 242 0.0 0.0 0.00 0.00 0.00 76 1013.0
20260508132352 53 227 4.0 4.0 0.00 0.00 0.00 73 1012.9
20260508131849 51 228 0.0 0.0 0.00 0.00 0.00 80 1013.0
20260508131344 49 266 0.0 0.0 0.00 0.00 0.00 80 1013.0
20260508130841 47 246 0.0 0.0 0.00 0.00 0.00 84 1013.0
20260508130338 45 214 0.0 0.0 0.00 0.00 0.00 87 1013.1
20260508125834 44 212 0.0 0.0 0.00 0.00 0.00 93 1013.3
20260508125330 41 223 0.0 0.0 0.00 0.00 0.00 95 1013.3
20260508124828 41 237 0.0 0.0 0.00 0.00 0.00 96 1013.2
20260508124325 40 230 0.0 0.0 0.00 0.00 0.00 96 1013.2
20260508123823 39 231 0.0 0.0 0.00 0.00 0.00 97 1013.5
20260508123321 39 231 0.0 0.0 0.00 0.00 0.00 97 1013.2
20260508122817 39 231 0.0 0.0 0.00 0.00 0.00 98 1013.3
20260508122314 39 232 0.0 0.0 0.00 0.00 0.00 98 1013.3
20260508121812 39 232 0.0 0.0 0.00 0.00 0.00 99 1013.5
20260508121310 38 232 0.0 0.0 0.00 0.00 0.00 99 1013.3
20260508120807 38 232 0.0 0.0 0.00 0.00 0.00 99 1013.4
20260508120305 38 232 0.0 0.0 0.00 0.00 0.00 99 1013.5
20260508115802 38 232 0.0 0.0 0.00 0.00 0.00 99 1013.4
20260508115259 38 233 0.0 0.0 0.00 0.00 0.00 99 1013.4
20260508114756 37 230 0.0 0.0 0.00 0.00 0.00 99 1013.7
20260508114253 37 228 0.0 0.0 0.00 0.00 0.00 99 1013.4
20260508113749 36 232 0.0 0.0 0.00 0.00 0.00 99 1013.5
20260508113248 36 240 0.0 0.0 0.00 0.00 0.00 99 1013.7
20260508112744 36 240 0.0 0.0 0.00 0.00 0.00 99 1013.8
20260508112241 35 240 0.0 0.0 0.00 0.00 0.00 99 1013.7
20260508111737 35 241 0.0 0.0 0.00 0.00 0.00 99 1013.4
20260508111235 35 243 0.0 0.0 0.00 0.00 0.00 99 1013.5
20260508110732 34 239 0.0 0.0 0.00 0.00 0.00 99 1013.4
20260508110229 34 242 0.0 0.0 0.00 0.00 0.00 99 1013.3
20260508105724 33 242 0.0 0.0 0.00 0.00 0.00 99 1013.3
20260508105221 33 243 0.0 0.0 0.00 0.00 0.00 99 1013.1
20260508104718 33 242 0.0 0.0 0.00 0.00 0.00 99 1013.1
20260508104214 33 243 0.0 0.0 0.00 0.00 0.00 99 1013.1
20260508103712 32 243 0.0 0.0 0.00 0.00 0.00 99 1013.1
20260508103209 32 243 0.0 0.0 0.00 0.00 0.00 99 1013.1
20260508102706 32 243 0.0 0.0 0.00 0.00 0.00 99 1013.0
20260508102204 32 243 0.0 0.0 0.00 0.00 0.00 99 1013.0
20260508101701 31 243 0.0 0.0 0.00 0.00 0.00 99 1012.9
20260508101159 31 243 0.0 0.0 0.00 0.00 0.00 99 1012.8
20260508100656 31 243 0.0 0.0 0.00 0.00 0.00 99 1012.8
20260508100154 31 243 0.0 0.0 0.00 0.00 0.00 99 1012.8
20260508095650 31 243 0.0 0.0 0.00 0.00 0.00 99 1012.7
20260508095147 31 243 0.0 0.0 0.00 0.00 0.00 99 1012.8
20260508094644 31 243 0.0 0.0 0.00 0.00 0.00 99 1012.8
20260508094141 31 243 0.0 0.0 0.00 0.00 0.00 99 1012.7
20260508093638 32 243 0.0 0.0 0.00 0.00 0.00 99 1012.8
20260508093136 32 243 0.0 0.0 0.00 0.00 0.00 99 1012.9
20260508092633 32 243 0.0 0.0 0.00 0.00 0.00 99 1012.4
20260508092131 32 243 0.0 0.0 0.00 0.00 0.00 99 1012.8
20260508091628 32 243 0.0 0.0 0.00 0.00 0.00 99 1012.7
20260508091125 32 243 0.0 0.0 0.00 0.00 0.00 99 1012.6
20260508090623 32 243 0.0 0.0 0.00 0.00 0.00 99 1012.7
20260508090120 32 243 0.0 0.0 0.00 0.00 0.00 99 1012.8
20260508085616 32 243 0.0 0.0 0.00 0.00 0.00 99 1012.7
20260508085113 32 242 0.0 0.0 0.00 0.00 0.00 99 1012.7
20260508084610 32 242 0.0 0.0 0.00 0.00 0.00 99 1012.8
20260508084108 32 242 0.0 0.0 0.00 0.00 0.00 99 1012.6
20260508083604 33 242 0.0 0.0 0.00 0.00 0.00 99 1012.7
20260508083101 33 242 0.0 0.0 0.00 0.00 0.00 99 1012.6
20260508082557 33 242 0.0 0.0 0.00 0.00 0.00 99 1012.8
20260508082054 34 241 0.0 0.0 0.00 0.00 0.00 99 1012.7
20260508081552 34 242 0.0 0.0 0.00 0.00 0.00 98 1012.5
20260508081047 34 242 0.0 0.0 0.00 0.00 0.00 98 1012.7
20260508080546 34 241 0.0 0.0 0.00 0.00 0.00 97 1012.7